TimeBST,TemperatureF,Dew PointF,Humidity,Sea Level PressureIn,VisibilityMPH,Wind Direction,Wind SpeedMPH,Gust SpeedMPH,PrecipitationIn,Events,Conditions,WindDirDegrees,DateUTC
12:20 AM,53.6,50.0,88,29.83,5.6,SSW,17.3,-,N/A,Rain,Rain,210,2012-09-29 23:20:00
12:50 AM,51.8,50.0,94,29.80,5.0,SSW,17.3,-,N/A,Rain,Rain,200,2012-09-29 23:50:00
1:20 AM,53.6,50.0,88,29.77,5.0,SSW,17.3,-,N/A,Rain,Light Rain,200,2012-09-30 00:20:00
1:50 AM,53.6,50.0,88,29.77,5.6,SSW,18.4,32.2,N/A,Rain,Light Rain,210,2012-09-30 00:50:00
2:20 AM,53.6,50.0,88,29.74,5.0,SSW,19.6,-,N/A,Rain,Light Rain,210,2012-09-30 01:20:00
2:50 AM,53.6,50.0,88,29.71,3.7,SSW,23.0,-,N/A,Rain,Rain,210,2012-09-30 01:50:00
3:20 AM,53.6,51.8,94,29.71,4.3,SW,23.0,-,N/A,Rain,Light Rain,220,2012-09-30 02:20:00
3:50 AM,53.6,51.8,94,29.68,3.7,SW,21.9,33.4,N/A,Rain,Rain,220,2012-09-30 02:50:00
4:20 AM,53.6,51.8,94,29.68,3.7,SW,23.0,-,N/A,Rain,Rain,220,2012-09-30 03:20:00
4:50 AM,53.6,51.8,94,29.65,3.7,SW,23.0,-,N/A,Rain,Rain,220,2012-09-30 03:50:00
5:20 AM,53.6,51.8,94,29.65,3.7,SW,24.2,-,N/A,Rain,Rain,220,2012-09-30 04:20:00
5:50 AM,55.4,51.8,88,29.65,4.3,SW,25.3,-,N/A,Rain,Rain,220,2012-09-30 04:50:00
6:20 AM,55.4,53.6,94,29.65,5.0,SW,24.2,-,N/A,Rain,Rain,220,2012-09-30 05:20:00
6:50 AM,55.4,53.6,94,29.65,3.1,SW,21.9,-,N/A,Rain,Rain,220,2012-09-30 05:50:00
7:20 AM,55.4,53.6,94,29.65,3.7,SW,17.3,-,N/A,Rain,Light Rain,220,2012-09-30 06:20:00
7:50 AM,55.4,53.6,94,29.65,3.7,SW,18.4,-,N/A,Rain,Light Rain,220,2012-09-30 06:50:00
8:20 AM,55.4,53.6,94,29.62,3.7,SW,19.6,-,N/A,Rain,Light Rain,220,2012-09-30 07:20:00
8:50 AM,55.4,53.6,94,29.62,3.1,SSW,21.9,-,N/A,Rain,Rain,210,2012-09-30 07:50:00
9:20 AM,57.2,53.6,88,29.62,3.7,SW,21.9,-,N/A,Rain,Light Rain,220,2012-09-30 08:20:00
9:50 AM,57.2,55.4,94,29.62,3.7,SW,17.3,-,N/A,Rain,Light Rain,230,2012-09-30 08:50:00
10:20 AM,57.2,55.4,94,29.62,2.2,SW,18.4,-,N/A,Rain,Rain,230,2012-09-30 09:20:00
10:50 AM,53.6,53.6,100,29.65,5.6,WSW,10.4,-,N/A,Rain,Light Rain,240,2012-09-30 09:50:00
11:20 AM,55.4,51.8,88,29.65,3.7,West,9.2,-,N/A,Rain,Light Rain,260,2012-09-30 10:20:00
11:50 AM,55.4,51.8,88,29.62,6.2,SSW,9.2,-,N/A,Rain,Light Rain,210,2012-09-30 10:50:00
12:20 PM,55.4,51.8,88,29.65,6.2,WSW,6.9,-,N/A,,Mostly Cloudy,240,2012-09-30 11:20:00
12:50 PM,59.0,53.6,82,29.65,6.2,SW,12.7,-,N/A,,Scattered Clouds,230,2012-09-30 11:50:00
1:20 PM,59.0,50.0,72,29.65,6.2,West,18.4,-,N/A,,Scattered Clouds,260,2012-09-30 12:20:00
1:50 PM,59.0,48.2,67,29.65,6.2,West,18.4,-,N/A,,Scattered Clouds,260,2012-09-30 12:50:00
2:20 PM,59.0,46.4,63,29.65,6.2,West,17.3,-,N/A,,Scattered Clouds,260,2012-09-30 13:20:00
2:50 PM,59.0,46.4,63,29.65,6.2,WSW,18.4,29.9,N/A,,Scattered Clouds,250,2012-09-30 13:50:00
3:20 PM,59.0,46.4,63,29.65,6.2,West,16.1,-,N/A,,Scattered Clouds,270,2012-09-30 14:20:00
3:50 PM,57.2,48.2,72,29.65,6.2,West,13.8,-,N/A,,Scattered Clouds,260,2012-09-30 14:50:00
4:20 PM,57.2,50.0,77,29.65,6.2,WSW,15.0,-,N/A,,Scattered Clouds,240,2012-09-30 15:20:00
4:50 PM,57.2,50.0,77,29.62,6.2,WSW,13.8,-,N/A,,Scattered Clouds,250,2012-09-30 15:50:00
5:20 PM,57.2,48.2,72,29.62,6.2,WSW,16.1,-,N/A,,Scattered Clouds,240,2012-09-30 16:20:00
5:50 PM,57.2,48.2,72,29.65,6.2,WSW,13.8,-,N/A,,Scattered Clouds,240,2012-09-30 16:50:00
6:20 PM,53.6,48.2,82,29.65,6.2,SW,9.2,-,N/A,,Partly Cloudy,230,2012-09-30 17:20:00
6:50 PM,53.6,46.4,77,29.65,6.2,WSW,9.2,-,N/A,,Partly Cloudy,240,2012-09-30 17:50:00
7:20 PM,51.8,46.4,82,29.62,6.2,SW,12.7,-,N/A,,Partly Cloudy,230,2012-09-30 18:20:00
7:50 PM,51.8,46.4,82,29.62,6.2,WSW,10.4,-,N/A,,Partly Cloudy,240,2012-09-30 18:50:00
8:20 PM,53.6,48.2,82,29.65,6.2,WSW,12.7,-,N/A,Rain,Light Rain Showers,250,2012-09-30 19:20:00
8:50 PM,51.8,48.2,88,29.65,5.6,WSW,11.5,-,N/A,Rain,Light Rain Showers,240,2012-09-30 19:50:00
9:20 PM,51.8,48.2,88,29.65,6.2,SW,4.6,-,N/A,,Scattered Clouds,230,2012-09-30 20:20:00
9:50 PM,50.0,46.4,87,29.65,6.2,WSW,8.1,-,N/A,,Mostly Cloudy,250,2012-09-30 20:50:00
10:20 PM,51.8,46.4,82,29.62,6.2,WSW,12.7,-,N/A,,Partly Cloudy,240,2012-09-30 21:20:00
10:50 PM,50.0,46.4,87,29.62,6.2,SW,10.4,-,N/A,,Partly Cloudy,230,2012-09-30 21:50:00
11:20 PM,51.8,46.4,82,29.62,-9999.0,SW,11.5,-,N/A,,Clear,230,2012-09-30 22:20:00
11:50 PM,51.8,48.2,88,29.62,6.2,SW,10.4,-,N/A,,Scattered Clouds,230,2012-09-30 22:50:00